CSC3454 ZULS-ZLXN

Flight info

Callsign CSC3454
Flight time 1h 53m
Altitude 37100
Route DM01D DM W500 TAPUN DCT IGELA B213 PARGU DCT KADKI DCT UPVOP UPV19A
Aircraft A319/M-SDE3FGHIRWY/LB1

Departure

Time 2026-04-30 03:35
Airport Lhasa Gonggar International Airport (ZULS)

Arrival

Time 2026-04-30 05:29
Airport Xining Caojiabao International Airport (ZLXN)
Time Latitude Longitude Altitude Speed Heading
2026-04-30 03:30 29.29123 90.89101 11909 ft 2 kts 35°
2026-04-30 03:31 29.29112 90.89095 11910 ft 0 kts 17°
2026-04-30 03:31 29.29105 90.89093 11911 ft 0 kts 13°
2026-04-30 03:32 29.29114 90.89095 11910 ft 4 kts 13°
2026-04-30 03:32 29.29183 90.89115 11902 ft 18 kts 14°
2026-04-30 03:33 29.29320 90.89155 11902 ft 21 kts 14°
2026-04-30 03:33 29.29464 90.89196 11903 ft 22 kts
2026-04-30 03:33 29.29612 90.89196 11900 ft 20 kts
2026-04-30 03:33 29.29744 90.89195 11900 ft 16 kts 12°
2026-04-30 03:34 29.29778 90.89261 11900 ft 0 kts 88°
2026-04-30 03:34 29.29779 90.89316 11900 ft 31 kts 89°
2026-04-30 03:34 29.29784 90.89859 11897 ft 102 kts 90°
2026-04-30 03:34 29.29802 90.90915 11893 ft 163 kts 88°
2026-04-30 03:35 29.29821 90.92406 12086 ft 197 kts 90°
2026-04-30 03:35 29.29818 90.93960 12719 ft 201 kts 93°
2026-04-30 03:35 29.29774 90.95554 13444 ft 204 kts 92°
2026-04-30 03:35 29.29737 90.97161 14091 ft 199 kts 92°
2026-04-30 03:36 29.29705 90.98771 14293 ft 208 kts 92°
2026-04-30 03:36 29.29684 91.00462 14486 ft 218 kts 91°
2026-04-30 03:36 29.29681 91.02219 14685 ft 228 kts 91°
2026-04-30 03:36 29.29686 91.04081 14886 ft 239 kts 91°
2026-04-30 03:37 29.29690 91.06052 15022 ft 255 kts 91°
2026-04-30 03:37 29.29693 91.08137 15263 ft 268 kts 91°
2026-04-30 03:37 29.29695 91.10314 15502 ft 281 kts 91°
2026-04-30 03:37 29.29698 91.12580 15840 ft 291 kts 91°
2026-04-30 03:38 29.29699 91.14920 16344 ft 294 kts 91°
2026-04-30 03:38 29.29700 91.17242 16868 ft 296 kts 91°
2026-04-30 03:38 29.29692 91.19607 17386 ft 298 kts 94°
2026-04-30 03:38 29.29442 91.21944 17909 ft 299 kts 104°
2026-04-30 03:39 29.28861 91.24203 18436 ft 300 kts 110°
2026-04-30 03:39 29.28231 91.26505 18815 ft 307 kts 102°
2026-04-30 03:39 29.28016 91.29003 19000 ft 322 kts 94°
2026-04-30 03:39 29.27941 91.31610 19185 ft 336 kts 93°
2026-04-30 03:40 29.27860 91.34300 19368 ft 349 kts 94°
2026-04-30 03:40 29.27750 91.37119 19554 ft 362 kts 94°
2026-04-30 03:40 29.27611 91.40054 19837 ft 371 kts 95°
2026-04-30 03:40 29.27458 91.43012 20277 ft 375 kts 95°
2026-04-30 03:41 29.27298 91.45982 20732 ft 379 kts 95°
2026-04-30 03:41 29.27126 91.49014 21180 ft 382 kts 95°
2026-04-30 03:41 29.26956 91.52026 21625 ft 386 kts 95°
2026-04-30 03:41 29.26777 91.55132 22073 ft 390 kts 96°
2026-04-30 03:42 29.26594 91.58231 22565 ft 393 kts 96°
2026-04-30 03:42 29.26413 91.61342 23036 ft 396 kts 96°
2026-04-30 03:42 29.26223 91.64516 23490 ft 400 kts 96°
2026-04-30 03:42 29.26037 91.67667 23981 ft 402 kts 96°
2026-04-30 03:43 29.25848 91.70888 24449 ft 405 kts 96°
2026-04-30 03:43 29.25770 91.74107 24857 ft 411 kts 87°
2026-04-30 03:43 29.26344 91.77296 25267 ft 417 kts 71°
2026-04-30 03:43 29.27645 91.80296 25736 ft 420 kts 58°
2026-04-30 03:44 29.29255 91.83066 26179 ft 422 kts 56°
2026-04-30 03:44 29.30918 91.85826 26571 ft 426 kts 56°
2026-04-30 03:44 29.32592 91.88618 26979 ft 428 kts 56°
2026-04-30 03:44 29.34283 91.91464 27372 ft 431 kts 56°
2026-04-30 03:45 29.35959 91.94311 27779 ft 433 kts 56°
2026-04-30 03:45 29.37638 91.97180 28159 ft 436 kts 56°
2026-04-30 03:45 29.39323 92.00066 28482 ft 440 kts 56°
2026-04-30 03:45 29.41030 92.02998 28846 ft 442 kts 56°
2026-04-30 03:46 29.42722 92.05911 29218 ft 444 kts 56°
2026-04-30 03:46 29.44435 92.08859 29567 ft 447 kts 56°
2026-04-30 03:46 29.46180 92.11871 29881 ft 451 kts 56°
2026-04-30 03:46 29.47925 92.14880 30201 ft 454 kts 56°
2026-04-30 03:47 29.49670 92.17885 30548 ft 456 kts 56°
2026-04-30 03:47 29.51421 92.20912 30905 ft 458 kts 56°
2026-04-30 03:47 29.53175 92.23965 31237 ft 461 kts 56°
2026-04-30 03:47 29.54948 92.27062 31541 ft 464 kts 56°
2026-04-30 03:48 29.56711 92.30147 31839 ft 467 kts 56°
2026-04-30 03:48 29.58486 92.33261 32150 ft 469 kts 56°
2026-04-30 03:48 29.60265 92.36384 32480 ft 471 kts 56°
2026-04-30 03:48 29.62063 92.39542 32835 ft 472 kts 56°
2026-04-30 03:49 29.63853 92.42689 33254 ft 471 kts 56°
2026-04-30 03:49 29.65632 92.45824 33721 ft 469 kts 56°
2026-04-30 03:49 29.67421 92.48977 34123 ft 469 kts 55°
2026-04-30 03:49 29.69191 92.52099 34468 ft 470 kts 55°
2026-04-30 03:50 29.70962 92.55228 34814 ft 471 kts 55°
2026-04-30 03:50 29.72759 92.58398 35177 ft 471 kts 55°
2026-04-30 03:50 29.74535 92.61536 35550 ft 471 kts 55°
2026-04-30 03:50 29.76329 92.64709 35857 ft 472 kts 55°
2026-04-30 03:51 29.78095 92.67844 36130 ft 473 kts 56°
2026-04-30 03:51 29.79877 92.71016 36389 ft 474 kts 56°
2026-04-30 03:51 29.81669 92.74213 36609 ft 476 kts 55°
2026-04-30 03:51 29.83481 92.77429 36786 ft 478 kts 55°
2026-04-30 03:52 29.85281 92.80623 36985 ft 480 kts 55°
2026-04-30 03:52 29.87085 92.83830 37201 ft 481 kts 55°
2026-04-30 03:52 29.88923 92.87103 37437 ft 482 kts 55°
2026-04-30 03:52 29.90742 92.90344 37626 ft 484 kts 55°
2026-04-30 03:53 29.92577 92.93614 37783 ft 486 kts 55°
2026-04-30 03:53 29.94401 92.96865 37814 ft 487 kts 55°
2026-04-30 03:53 29.98070 93.03417 37835 ft 487 kts 55°
2026-04-30 03:54 30.01993 93.09752 37826 ft 484 kts 48°
2026-04-30 03:54 30.06318 93.15686 37820 ft 483 kts 46°
2026-04-30 03:55 30.10653 93.21565 37812 ft 482 kts 46°
2026-04-30 03:55 30.14991 93.27450 37801 ft 482 kts 46°
2026-04-30 03:56 30.19327 93.33377 37796 ft 483 kts 46°
2026-04-30 03:56 30.23644 93.39318 37797 ft 482 kts 46°
2026-04-30 03:57 30.27921 93.45216 37784 ft 482 kts 46°
2026-04-30 03:57 30.32237 93.51170 37781 ft 481 kts 46°
2026-04-30 03:58 30.36178 93.57407 37780 ft 484 kts 55°
2026-04-30 03:58 30.39200 93.64345 37793 ft 486 kts 66°
2026-04-30 03:59 30.41197 93.71826 37806 ft 486 kts 76°
2026-04-30 03:59 30.42734 93.79404 37820 ft 487 kts 76°
2026-04-30 04:00 30.44292 93.87013 37819 ft 486 kts 75°
2026-04-30 04:00 30.45871 93.94613 37825 ft 487 kts 76°
2026-04-30 04:01 30.47456 94.02204 37831 ft 487 kts 75°
2026-04-30 04:01 30.49041 94.09832 37817 ft 486 kts 75°
2026-04-30 04:02 30.50608 94.17407 37807 ft 485 kts 75°
2026-04-30 04:02 30.52215 94.24947 37789 ft 484 kts 74°
2026-04-30 04:03 30.53885 94.32517 37790 ft 483 kts 74°
2026-04-30 04:03 30.55523 94.40014 37782 ft 484 kts 74°
2026-04-30 04:04 30.57159 94.47557 37772 ft 483 kts 73°
2026-04-30 04:04 30.58794 94.55118 37762 ft 482 kts 75°
2026-04-30 04:05 30.60410 94.62643 37754 ft 481 kts 74°
2026-04-30 04:05 30.62020 94.70156 37764 ft 482 kts 75°
2026-04-30 04:06 30.63615 94.77644 37754 ft 480 kts 74°
2026-04-30 04:06 30.65208 94.85120 37744 ft 479 kts 74°
2026-04-30 04:07 30.66811 94.92651 37743 ft 479 kts 75°
2026-04-30 04:08 30.69192 95.03883 37738 ft 478 kts 75°
2026-04-30 04:08 30.70763 95.11330 37731 ft 477 kts 74°
2026-04-30 04:09 30.72333 95.18785 37734 ft 477 kts 74°
2026-04-30 04:09 30.73907 95.26298 37730 ft 478 kts 74°
2026-04-30 04:10 30.75465 95.33747 37736 ft 477 kts 74°
2026-04-30 04:10 30.77021 95.41213 37740 ft 479 kts 74°
2026-04-30 04:11 30.78575 95.48701 37738 ft 477 kts 74°
2026-04-30 04:11 30.80132 95.56227 37736 ft 477 kts 74°
2026-04-30 04:12 30.81671 95.63698 37730 ft 476 kts 74°
2026-04-30 04:12 30.83198 95.71143 37735 ft 476 kts 75°
2026-04-30 04:13 30.84769 95.78603 37738 ft 476 kts 74°
2026-04-30 04:13 30.86392 95.86046 37736 ft 476 kts 73°
2026-04-30 04:14 30.88004 95.93502 37734 ft 476 kts 74°
2026-04-30 04:14 30.89601 96.00947 37729 ft 475 kts 74°
2026-04-30 04:15 30.91193 96.08394 37734 ft 476 kts 74°
2026-04-30 04:15 30.92780 96.15840 37740 ft 475 kts 74°
2026-04-30 04:16 30.94359 96.23277 37740 ft 474 kts 74°
2026-04-30 04:16 30.95924 96.30669 37749 ft 473 kts 74°
2026-04-30 04:17 30.98059 96.37872 37742 ft 470 kts 61°
2026-04-30 04:17 31.01440 96.44284 37751 ft 465 kts 47°
2026-04-30 04:18 31.05910 96.49670 37773 ft 459 kts 36°
2026-04-30 04:18 31.10789 96.54445 37773 ft 460 kts 35°
2026-04-30 04:19 31.15698 96.59213 37761 ft 460 kts 35°
2026-04-30 04:19 31.20607 96.64032 37755 ft 461 kts 36°
2026-04-30 04:20 31.25484 96.68877 37746 ft 460 kts 36°
2026-04-30 04:20 31.30359 96.73743 37740 ft 460 kts 36°
2026-04-30 04:21 31.35250 96.78611 37735 ft 460 kts 36°
2026-04-30 04:21 31.40128 96.83474 37718 ft 460 kts 36°
2026-04-30 04:22 31.44984 96.88319 37842 ft 465 kts 35°
2026-04-30 04:22 31.47451 96.90782 38056 ft 465 kts 34°
2026-04-30 04:22 31.49915 96.93246 38262 ft 466 kts 34°
2026-04-30 04:22 31.52375 96.95708 38437 ft 467 kts 34°
2026-04-30 04:23 31.54834 96.98167 38632 ft 467 kts 34°
2026-04-30 04:23 31.57315 97.00649 38831 ft 467 kts 34°
2026-04-30 04:23 31.59783 97.03120 39054 ft 466 kts 34°
2026-04-30 04:23 31.62251 97.05593 39305 ft 465 kts 34°
2026-04-30 04:24 31.64709 97.08060 39513 ft 465 kts 34°
2026-04-30 04:24 31.69632 97.12998 39542 ft 471 kts 34°
2026-04-30 04:25 31.74655 97.18047 39546 ft 477 kts 34°
2026-04-30 04:25 31.79740 97.23164 39552 ft 483 kts 34°
2026-04-30 04:26 31.84863 97.28335 39562 ft 488 kts 34°
2026-04-30 04:26 31.90001 97.33533 39538 ft 488 kts 34°
2026-04-30 04:27 31.95121 97.38713 39549 ft 489 kts 34°
2026-04-30 04:27 32.00293 97.43951 39553 ft 490 kts 34°
2026-04-30 04:28 32.05418 97.49159 39556 ft 489 kts 34°
2026-04-30 04:28 32.10574 97.54398 39559 ft 489 kts 34°
2026-04-30 04:29 32.15741 97.59632 39579 ft 490 kts 34°
2026-04-30 04:29 32.20873 97.64851 39592 ft 488 kts 34°
2026-04-30 04:30 32.26013 97.70121 39592 ft 491 kts 35°
2026-04-30 04:30 32.31163 97.75413 39592 ft 490 kts 35°
2026-04-30 04:31 32.36303 97.80688 39572 ft 490 kts 35°
2026-04-30 04:31 32.41451 97.85973 39548 ft 491 kts 35°
2026-04-30 04:32 32.46592 97.91260 39575 ft 491 kts 35°
2026-04-30 04:32 32.51719 97.96539 39588 ft 490 kts 35°
2026-04-30 04:33 32.56866 98.01846 39570 ft 490 kts 35°
2026-04-30 04:33 32.62010 98.07156 39579 ft 491 kts 36°
2026-04-30 04:34 32.67136 98.12460 39593 ft 491 kts 36°
2026-04-30 04:34 32.72258 98.17770 39594 ft 491 kts 36°
2026-04-30 04:35 32.77372 98.23083 39490 ft 485 kts 36°
2026-04-30 04:35 32.79899 98.25716 39293 ft 475 kts 36°
2026-04-30 04:35 32.82363 98.28287 38930 ft 467 kts 36°
2026-04-30 04:35 32.84780 98.30804 38310 ft 464 kts 36°
2026-04-30 04:36 32.87192 98.33314 37789 ft 464 kts 36°
2026-04-30 04:36 32.89639 98.35865 37683 ft 467 kts 36°
2026-04-30 04:36 32.92063 98.38396 37687 ft 469 kts 36°
2026-04-30 04:37 32.96941 98.43671 37688 ft 482 kts 40°
2026-04-30 04:37 33.01743 98.49379 37680 ft 488 kts 41°
2026-04-30 04:38 33.06510 98.55127 37680 ft 489 kts 41°
2026-04-30 04:38 33.11286 98.60875 37683 ft 489 kts 41°
2026-04-30 04:39 33.16085 98.66632 37696 ft 490 kts 41°
2026-04-30 04:39 33.20848 98.72397 37715 ft 489 kts 41°
2026-04-30 04:40 33.25633 98.78193 37722 ft 490 kts 42°
2026-04-30 04:40 33.30402 98.83974 37716 ft 491 kts 42°
2026-04-30 04:41 33.35198 98.89790 37717 ft 491 kts 41°
2026-04-30 04:41 33.39983 98.95607 37705 ft 491 kts 41°
2026-04-30 04:42 33.44746 99.01405 37691 ft 490 kts 41°
2026-04-30 04:42 33.49506 99.07206 37689 ft 489 kts 41°
2026-04-30 04:43 33.54253 99.12997 37676 ft 491 kts 41°
2026-04-30 04:43 33.59027 99.18839 37670 ft 490 kts 41°
2026-04-30 04:44 33.63782 99.24667 37660 ft 491 kts 41°
2026-04-30 04:44 33.68540 99.30505 37650 ft 490 kts 41°
2026-04-30 04:45 33.73325 99.36385 37649 ft 490 kts 41°
2026-04-30 04:45 33.78084 99.42247 37643 ft 491 kts 41°
2026-04-30 04:46 33.82815 99.48082 37636 ft 491 kts 41°
2026-04-30 04:46 33.87593 99.53990 37637 ft 490 kts 41°
2026-04-30 04:47 33.92326 99.59844 37635 ft 490 kts 41°
2026-04-30 04:47 33.97087 99.65749 37631 ft 490 kts 42°
2026-04-30 04:48 34.01813 99.71650 37639 ft 491 kts 42°
2026-04-30 04:48 34.06532 99.77542 37635 ft 491 kts 42°
2026-04-30 04:49 34.11284 99.83469 37633 ft 490 kts 42°
2026-04-30 04:49 34.15998 99.89323 37640 ft 490 kts 42°
2026-04-30 04:50 34.20742 99.95232 37640 ft 491 kts 41°
2026-04-30 04:50 34.25482 100.01162 37636 ft 491 kts 41°
2026-04-30 04:51 34.30213 100.07097 37624 ft 491 kts 41°
2026-04-30 04:51 34.34951 100.13051 37611 ft 489 kts 41°
2026-04-30 04:51 34.37265 100.15971 37603 ft 474 kts 41°
2026-04-30 04:52 34.39482 100.18774 37595 ft 458 kts 41°
2026-04-30 04:52 34.41645 100.21513 37593 ft 442 kts 41°
2026-04-30 04:52 34.43735 100.24159 37596 ft 427 kts 40°
2026-04-30 04:52 34.45749 100.26708 37594 ft 412 kts 40°
2026-04-30 04:53 34.47724 100.29204 37597 ft 408 kts 40°
2026-04-30 04:53 34.51646 100.34154 37599 ft 408 kts 40°
2026-04-30 04:54 34.55573 100.39117 37597 ft 408 kts 40°
2026-04-30 04:54 34.59481 100.44070 37600 ft 409 kts 40°
2026-04-30 04:55 34.63394 100.49043 37601 ft 409 kts 40°
2026-04-30 04:55 34.67298 100.54013 37594 ft 406 kts 40°
2026-04-30 04:56 34.71192 100.58971 37601 ft 406 kts 40°
2026-04-30 04:56 34.75104 100.63966 37593 ft 407 kts 40°
2026-04-30 04:57 34.78992 100.68951 37582 ft 407 kts 40°
2026-04-30 04:57 34.82881 100.73952 37585 ft 409 kts 40°
2026-04-30 04:58 34.86756 100.78929 37575 ft 408 kts 40°
2026-04-30 04:58 34.90656 100.83935 37575 ft 407 kts 40°
2026-04-30 04:59 34.94571 100.88970 37576 ft 409 kts 40°
2026-04-30 04:59 34.98446 100.93960 37570 ft 407 kts 40°
2026-04-30 05:00 35.02321 100.98959 37571 ft 406 kts 40°
2026-04-30 05:00 35.06192 101.03949 37566 ft 407 kts 39°
2026-04-30 05:01 35.10087 101.08984 37556 ft 407 kts 40°
2026-04-30 05:01 35.13973 101.13985 37555 ft 408 kts 40°
2026-04-30 05:02 35.17895 101.19053 37552 ft 411 kts 40°
2026-04-30 05:02 35.21790 101.24104 37532 ft 410 kts 40°
2026-04-30 05:03 35.25707 101.29198 37524 ft 411 kts 40°
2026-04-30 05:03 35.29596 101.34270 37516 ft 411 kts 39°
2026-04-30 05:04 35.33495 101.39352 37509 ft 409 kts 40°
2026-04-30 05:04 35.37373 101.44424 37504 ft 410 kts 39°
2026-04-30 05:05 35.41288 101.49542 37476 ft 412 kts 40°
2026-04-30 05:05 35.45187 101.54655 37484 ft 411 kts 40°
2026-04-30 05:06 35.51057 101.62364 37307 ft 421 kts 40°
2026-04-30 05:06 35.53077 101.65008 36651 ft 430 kts 40°
2026-04-30 05:06 35.55125 101.67701 35689 ft 438 kts 41°
2026-04-30 05:07 35.57177 101.70421 35052 ft 438 kts 41°
2026-04-30 05:07 35.59257 101.73180 34457 ft 444 kts 41°
2026-04-30 05:07 35.61387 101.75997 33845 ft 454 kts 41°
2026-04-30 05:07 35.63564 101.78875 33252 ft 462 kts 41°
2026-04-30 05:08 35.65754 101.81768 32628 ft 463 kts 42°
2026-04-30 05:08 35.67933 101.84654 32096 ft 460 kts 43°
2026-04-30 05:08 35.70085 101.87509 31665 ft 454 kts 43°
2026-04-30 05:08 35.72197 101.90315 31244 ft 449 kts 43°
2026-04-30 05:09 35.74318 101.93130 30803 ft 444 kts 42°
2026-04-30 05:09 35.76382 101.95876 30390 ft 440 kts 43°
2026-04-30 05:09 35.78455 101.98633 29933 ft 436 kts 43°
2026-04-30 05:09 35.80498 102.01347 29499 ft 431 kts 43°
2026-04-30 05:10 35.82515 102.04028 29044 ft 428 kts 43°
2026-04-30 05:10 35.84522 102.06703 28597 ft 424 kts 43°
2026-04-30 05:10 35.86498 102.09345 28176 ft 419 kts 43°
2026-04-30 05:10 35.88474 102.11980 27747 ft 415 kts 43°
2026-04-30 05:11 35.90411 102.14565 27300 ft 412 kts 43°
2026-04-30 05:11 35.92352 102.17159 26888 ft 408 kts 43°
2026-04-30 05:11 35.94266 102.19723 26476 ft 404 kts 43°
2026-04-30 05:11 35.96158 102.22252 26060 ft 400 kts 44°
2026-04-30 05:12 35.98014 102.24737 25651 ft 397 kts 44°
2026-04-30 05:12 35.99877 102.27238 25248 ft 393 kts 43°
2026-04-30 05:12 36.01711 102.29697 24853 ft 390 kts 43°
2026-04-30 05:12 36.03556 102.32175 24454 ft 386 kts 44°
2026-04-30 05:13 36.05364 102.34603 24061 ft 383 kts 44°
2026-04-30 05:13 36.07138 102.36990 23668 ft 380 kts 44°
2026-04-30 05:13 36.08918 102.39382 23273 ft 377 kts 44°
2026-04-30 05:13 36.10680 102.41753 22879 ft 375 kts 44°
2026-04-30 05:14 36.12442 102.44109 22497 ft 372 kts 44°
2026-04-30 05:14 36.14199 102.46462 22104 ft 370 kts 44°
2026-04-30 05:14 36.15931 102.48789 21693 ft 369 kts 44°
2026-04-30 05:14 36.17655 102.51108 21301 ft 367 kts 45°
2026-04-30 05:15 36.19392 102.53454 20895 ft 366 kts 45°
2026-04-30 05:15 36.21106 102.55772 20492 ft 365 kts 45°
2026-04-30 05:15 36.22807 102.58074 20095 ft 364 kts 45°
2026-04-30 05:15 36.24507 102.60381 19689 ft 363 kts 45°
2026-04-30 05:16 36.26204 102.62682 19283 ft 361 kts 46°
2026-04-30 05:16 36.27889 102.64970 18893 ft 360 kts 46°
2026-04-30 05:16 36.29548 102.67233 18467 ft 359 kts 47°
2026-04-30 05:16 36.31221 102.69523 18053 ft 358 kts 47°
2026-04-30 05:17 36.32893 102.71804 17630 ft 357 kts 48°
2026-04-30 05:17 36.34566 102.74081 17211 ft 356 kts 47°
2026-04-30 05:17 36.36470 102.75984 16753 ft 355 kts 26°
2026-04-30 05:17 36.38838 102.76830 16342 ft 352 kts
2026-04-30 05:18 36.41262 102.76630 15928 ft 350 kts 351°
2026-04-30 05:18 36.43612 102.75976 15483 ft 349 kts 337°
2026-04-30 05:18 36.45637 102.74390 15078 ft 346 kts 315°
2026-04-30 05:18 36.47150 102.72121 14896 ft 336 kts 306°
2026-04-30 05:19 36.48497 102.69814 14888 ft 322 kts 305°
2026-04-30 05:19 36.49778 102.67622 14875 ft 308 kts 306°
2026-04-30 05:19 36.51026 102.65508 14869 ft 295 kts 304°
2026-04-30 05:19 36.51852 102.63220 14564 ft 291 kts 276°
2026-04-30 05:20 36.51630 102.60782 14299 ft 284 kts 246°
2026-04-30 05:20 36.50760 102.58623 14041 ft 280 kts 240°
2026-04-30 05:20 36.49841 102.56525 13778 ft 277 kts 240°
2026-04-30 05:20 36.48933 102.54404 13525 ft 275 kts 240°
2026-04-30 05:21 36.48065 102.52324 13281 ft 273 kts 241°
2026-04-30 05:21 36.47208 102.50224 13036 ft 271 kts 243°
2026-04-30 05:21 36.46497 102.48066 12805 ft 270 kts 250°
2026-04-30 05:21 36.45958 102.45851 12623 ft 265 kts 253°
2026-04-30 05:22 36.45471 102.43691 12440 ft 260 kts 253°
2026-04-30 05:22 36.44987 102.41531 12252 ft 256 kts 253°
2026-04-30 05:22 36.44512 102.39439 12054 ft 251 kts 253°
2026-04-30 05:22 36.44207 102.37305 11636 ft 254 kts 266°
2026-04-30 05:23 36.44329 102.35162 11344 ft 249 kts 281°
2026-04-30 05:23 36.44798 102.33152 11281 ft 233 kts 289°
2026-04-30 05:23 36.45358 102.31330 11127 ft 223 kts 291°
2026-04-30 05:23 36.45902 102.29570 10875 ft 217 kts 290°
2026-04-30 05:24 36.46411 102.27842 10590 ft 211 kts 289°
2026-04-30 05:24 36.46879 102.26183 10308 ft 198 kts 289°
2026-04-30 05:24 36.47312 102.24618 10053 ft 182 kts 289°
2026-04-30 05:24 36.47700 102.23203 9805 ft 168 kts 288°
2026-04-30 05:25 36.48066 102.21867 9587 ft 161 kts 289°
2026-04-30 05:25 36.48424 102.20561 9400 ft 159 kts 289°
2026-04-30 05:25 36.48780 102.19270 9201 ft 158 kts 289°
2026-04-30 05:25 36.49137 102.17973 9010 ft 159 kts 289°
2026-04-30 05:26 36.49495 102.16679 8820 ft 158 kts 289°
2026-04-30 05:26 36.49852 102.15386 8628 ft 159 kts 290°
2026-04-30 05:26 36.50213 102.14085 8434 ft 158 kts 290°
2026-04-30 05:26 36.50570 102.12801 8244 ft 156 kts 289°
2026-04-30 05:27 36.50922 102.11531 8065 ft 156 kts 289°
2026-04-30 05:27 36.51275 102.10265 7872 ft 156 kts 289°
2026-04-30 05:27 36.51630 102.08987 7692 ft 156 kts 289°
2026-04-30 05:27 36.51987 102.07719 7489 ft 154 kts 289°
2026-04-30 05:28 36.52340 102.06454 7321 ft 155 kts 288°
2026-04-30 05:28 36.52684 102.05204 7222 ft 145 kts 288°
2026-04-30 05:28 36.52970 102.04172 7218 ft 104 kts 289°
2026-04-30 05:28 36.53154 102.03520 7220 ft 51 kts 289°
2026-04-30 05:29 36.53203 102.03207 7220 ft 25 kts 267°
2026-04-30 05:29 36.53188 102.03064 7220 ft 14 kts 258°
2026-04-30 05:29 36.53119 102.03004 7220 ft 11 kts 198°
2026-04-30 05:29 36.53047 102.03013 7220 ft 10 kts 125°
2026-04-30 05:30 36.53022 102.03088 7219 ft 8 kts 109°
2026-04-30 05:30 36.53005 102.03153 7219 ft 10 kts 109°
2026-04-30 05:30 36.52968 102.03285 7219 ft 22 kts 109°
2026-04-30 05:30 36.52908 102.03502 7219 ft 26 kts 108°
2026-04-30 05:31 36.52844 102.03732 7218 ft 32 kts 109°
2026-04-30 05:31 36.52775 102.03982 7217 ft 27 kts 109°
2026-04-30 05:31 36.52716 102.04192 7217 ft 23 kts 109°
2026-04-30 05:31 36.52655 102.04411 7216 ft 28 kts 109°
2026-04-30 05:32 36.52613 102.04563 7216 ft 9 kts 109°
2026-04-30 05:32 36.52575 102.04603 7216 ft 8 kts 185°
2026-04-30 05:32 36.52446 102.04551 7215 ft 24 kts 199°
2026-04-30 05:32 36.52342 102.04527 7214 ft 9 kts 141°
2026-04-30 05:33 36.52326 102.04569 7214 ft 0 kts 108°